Погода в Корта

Россия / Республика Марий Эл     56°35′58″N   47°58′37″E
темп.,
°C
ветер,
м/с
пор.,
м/с
влажн.,
%
обл.,
%
осадки,
мм/ч
давл.,
гПа
погр.,
м
6 мая, чт
чт600:00+3зюз3109532 0.0 1011268
03:00+4з2789100 0.0 1012286
06:00+5ююз1187100 0.0 101356
09:00+8ю237317 0.0 1014413
12:00+16зюз365361 0.0 10131645
15:00+17юз575624 0.3 10131594
18:00+16ююз41061100 0.1 1012613
21:00+12ю41379100 0.1 1013410
7 мая, пт
пт700:00+11ю41479100 0.0 1013422
03:00+9ю4138499 0.0 1013329
06:00+11ю41275100 0.0 1013478
09:00+15ю61156100 0.0 10131134
12:00+16ююз51155100 0.3 10131697
15:00+16ююз61156100 0.6 10121812
18:00+10зсз4690100 1.8 1014461
21:00+8зсз1390100 1.9 1016283
8 мая, сб
сб800:00+5сз11950 0.0 101810
03:00+4с11920 0.0 101810
06:00+7всв12845 0.0 1019123
09:00+13вюв35584 0.0 1018876
12:00+17ююв465179 0.0 10161775
15:00+15ююв4763100 0.0 10151010
18:00+16юв3867100 0.0 1013418
21:00+15ююв51464100 0.0 1012535
9 мая, вс
вс900:00+13ююв51469100 0.1 1011545
03:00+12ююв51470100 0.1 1011463
06:00+13ююв41569100 0.0 1011656
09:00+14ю51270100 0.4 1011866
12:00+15зюз4778100 0.1 1013897
15:00+11зсз3693100 2.4 1015470
18:00+8сз3795100 8.6 1017569
21:00+8ссз2695100 9.8 1019413
10 мая, пн
пн1000:00+8сз2693100 0.2 1021273
03:00+6ссз3793100 0.2 1023263
06:00+6ссз3791100 0.0 1026443
09:00+10с456922 0.0 1028934
12:00+13с56515 0.0 10291213
15:00+14с45445 0.0 10291398
18:00+13ссв24575 0.0 1030239
21:00+7св11710 0.0 103110